User: anonymous   Login
Location: *
(2.5500°S, 65.9667°W)
Time: 17:49:20
(UTC+00:00)
Language:

Cosmos 2123 Rocket - Orbit

View from above orbital plane
View from above orbital plane
View from above satellite
View from above satellite

Ground track
Ground track

The orbit data is extracted from the following two-line orbital elements,

1 21090U 91007B   22021.48377650  .00000081  00000-0  66976-4 0  9993
2 21090  82.9194  67.9876 0021122  24.3858 335.8293 13.76408572554985
Epoch (UTC): 21 January 2022 11:36:38
Eccentricity: 0.0021122
inclination: 82.9194°
perigee height: 961 km
apogee height: 992 km
right ascension of ascending node: 67.9876°
argument of perigee: 24.3858°
revolutions per day: 13.76408572
mean anomaly at epoch: 335.8293°
orbit number at epoch: 55498

The dashed part of the orbit path shows where the satellite is in the earth's shadow,  

DLR